Time,TemperatureF,DewpointF,PressureIn,WindDirection,WindDirectionDegrees,WindSpeedMPH,WindSpeedGustMPH,Humidity,HourlyPrecipIn,Conditions,Clouds,dailyrainin,SoftwareType,DateUTC
2013-01-25 07:52:00,10.3,4.0,30.41,North,355,0.0,-999.0,77,-99.99,,,0.00,weatherlink.com 1.10,2013-01-25 12:52:00,
2013-01-25 08:06:00,10.7,4.0,30.41,North,355,0.0,-999.0,75,-99.99,,,0.00,weatherlink.com 1.10,2013-01-25 13:06:00,
2013-01-25 08:21:00,11.3,5.0,30.41,North,355,0.0,-999.0,74,-99.99,,,0.00,weatherlink.com 1.10,2013-01-25 13:21:00,
2013-01-25 08:36:00,12.2,4.0,30.41,NNW,340,1.0,-999.0,71,-99.99,,,0.00,weatherlink.com 1.10,2013-01-25 13:36:00,
2013-01-25 08:51:00,13.0,5.0,30.40,NNW,338,2.0,-999.0,69,-99.99,,,0.00,weatherlink.com 1.10,2013-01-25 13:51:00,
2013-01-25 09:06:00,13.6,5.0,30.41,WNW,294,2.0,-999.0,67,-99.99,,,0.00,weatherlink.com 1.10,2013-01-25 14:06:00,
2013-01-25 09:21:00,14.0,5.0,30.41,North,360,0.0,-999.0,66,-99.99,,,0.00,weatherlink.com 1.10,2013-01-25 14:21:00,
2013-01-25 09:37:00,14.7,5.0,30.41,NNW,342,0.0,-999.0,66,-99.99,,,0.00,weatherlink.com 1.10,2013-01-25 14:37:00,
2013-01-25 09:52:00,15.2,5.0,30.42,NW,309,0.0,-999.0,64,-99.99,,,0.00,weatherlink.com 1.10,2013-01-25 14:52:00,
2013-01-25 10:07:00,15.7,6.0,30.41,NNW,334,0.0,-999.0,66,-99.99,,,0.00,weatherlink.com 1.10,2013-01-25 15:07:00,
2013-01-25 10:22:00,15.9,5.0,30.42,WNW,296,2.0,-999.0,63,-99.99,,,0.00,weatherlink.com 1.10,2013-01-25 15:22:00,
2013-01-25 10:37:00,16.3,5.0,30.41,NW,317,0.0,-999.0,62,-99.99,,,0.00,weatherlink.com 1.10,2013-01-25 15:37:00,
2013-01-25 10:52:00,17.0,6.0,30.40,West,281,0.0,-999.0,62,-99.99,,,0.00,weatherlink.com 1.10,2013-01-25 15:52:00,
2013-01-25 11:07:00,17.7,5.0,30.39,SW,234,3.0,-999.0,58,-99.99,,,0.00,weatherlink.com 1.10,2013-01-25 16:07:00,
2013-01-25 11:22:00,18.2,5.0,30.37,West,261,0.0,-999.0,57,-99.99,,,0.00,weatherlink.com 1.10,2013-01-25 16:22:00,
2013-01-25 11:37:00,18.4,5.0,30.37,NW,314,0.0,-999.0,57,-99.99,,,0.00,weatherlink.com 1.10,2013-01-25 16:37:00,
2013-01-25 11:52:00,19.4,6.0,30.35,WNW,301,0.0,-999.0,55,-99.99,,,0.00,weatherlink.com 1.10,2013-01-25 16:52:00,
2013-01-25 12:07:00,19.9,5.0,30.33,NW,324,0.0,-999.0,53,-99.99,,,0.00,weatherlink.com 1.10,2013-01-25 17:07:00,
2013-01-25 12:23:00,19.9,5.0,30.32,SSE,162,0.0,-999.0,52,-99.99,,,0.00,weatherlink.com 1.10,2013-01-25 17:23:00,
2013-01-25 12:38:00,20.4,5.0,30.31,NNW,328,0.0,-999.0,52,-99.99,,,0.00,weatherlink.com 1.10,2013-01-25 17:38:00,
2013-01-25 12:53:00,21.2,5.0,30.30,West,262,0.0,-999.0,50,-99.99,,,0.00,weatherlink.com 1.10,2013-01-25 17:53:00,
2013-01-25 13:08:00,21.8,5.0,30.29,NNW,345,0.0,-999.0,48,-99.99,,,0.00,weatherlink.com 1.10,2013-01-25 18:08:00,
2013-01-25 13:23:00,21.7,4.0,30.28,WNW,289,0.0,-999.0,46,-99.99,,,0.00,weatherlink.com 1.10,2013-01-25 18:23:00,
2013-01-25 13:38:00,21.8,4.0,30.27,NNW,344,0.0,-999.0,47,-99.99,,,0.00,weatherlink.com 1.10,2013-01-25 18:38:00,
2013-01-25 13:53:00,21.8,3.0,30.26,NW,315,0.0,-999.0,45,-99.99,,,0.00,weatherlink.com 1.10,2013-01-25 18:53:00,
2013-01-25 14:08:00,21.9,3.0,30.25,NW,315,0.0,-999.0,44,-99.99,,,0.00,weatherlink.com 1.10,2013-01-25 19:08:00,
2013-01-25 14:23:00,22.1,3.0,30.25,North,360,0.0,-999.0,44,-99.99,,,0.00,weatherlink.com 1.10,2013-01-25 19:23:00,
2013-01-25 14:39:00,22.8,4.0,30.25,North,360,0.0,-999.0,45,-99.99,,,0.00,weatherlink.com 1.10,2013-01-25 19:39:00,
2013-01-25 14:54:00,23.2,4.0,30.24,North,5,0.0,-999.0,44,-99.99,,,0.00,weatherlink.com 1.10,2013-01-25 19:54:00,
2013-01-25 15:09:00,23.3,4.0,30.22,ESE,115,0.0,-999.0,44,-99.99,,,0.00,weatherlink.com 1.10,2013-01-25 20:09:00,
2013-01-25 15:24:00,23.5,4.0,30.22,ESE,114,0.0,-999.0,44,-99.99,,,0.00,weatherlink.com 1.10,2013-01-25 20:24:00,
2013-01-25 15:39:00,23.7,7.0,30.23,NW,323,0.0,-999.0,48,-99.99,,,0.00,weatherlink.com 1.10,2013-01-25 20:39:00,
2013-01-25 15:54:00,23.6,5.0,30.22,NW,323,0.0,-999.0,45,-99.99,,,0.00,weatherlink.com 1.10,2013-01-25 20:54:00,
2013-01-25 16:09:00,23.2,5.0,30.22,NW,323,0.0,-999.0,46,-99.99,,,0.00,weatherlink.com 1.10,2013-01-25 21:09:00,
2013-01-25 16:24:00,23.2,5.0,30.22,NW,323,0.0,-999.0,46,-99.99,,,0.00,weatherlink.com 1.10,2013-01-25 21:24:00,
2013-01-25 16:39:00,23.2,5.0,30.20,NW,323,0.0,-999.0,46,-99.99,,,0.00,weatherlink.com 1.10,2013-01-25 21:39:00,
2013-01-25 16:54:00,23.0,7.0,30.20,SW,216,0.0,-999.0,51,-99.99,,,0.00,weatherlink.com 1.10,2013-01-25 21:54:00,
2013-01-25 17:09:00,22.9,8.0,30.19,SW,216,0.0,-999.0,52,-99.99,,,0.00,weatherlink.com 1.10,2013-01-25 22:09:00,
2013-01-25 17:25:00,22.5,7.0,30.18,SW,216,0.0,-999.0,52,-99.99,,,0.00,weatherlink.com 1.10,2013-01-25 22:25:00,
2013-01-25 17:40:00,22.3,7.0,30.19,SW,216,0.0,-999.0,53,-99.99,,,0.00,weatherlink.com 1.10,2013-01-25 22:40:00,
2013-01-25 17:55:00,22.3,7.0,30.18,SW,216,0.0,-999.0,53,-99.99,,,0.00,weatherlink.com 1.10,2013-01-25 22:55:00,
2013-01-25 18:10:00,22.1,10.0,30.17,South,172,0.0,-999.0,59,-99.99,,,0.00,weatherlink.com 1.10,2013-01-25 23:10:00,
2013-01-25 18:25:00,21.6,12.0,30.16,South,172,0.0,-999.0,67,-99.99,,,0.00,weatherlink.com 1.10,2013-01-25 23:25:00,
2013-01-25 18:40:00,21.1,13.0,30.16,South,172,0.0,-999.0,71,-99.99,,,0.00,weatherlink.com 1.10,2013-01-25 23:40:00,
2013-01-25 18:55:00,20.6,14.0,30.15,South,172,0.0,-999.0,74,-99.99,,,0.00,weatherlink.com 1.10,2013-01-25 23:55:00,
2013-01-25 19:10:00,20.2,14.0,30.15,South,172,0.0,-999.0,77,-99.99,,,0.00,weatherlink.com 1.10,2013-01-26 00:10:00,
2013-01-25 19:25:00,20.0,14.0,30.14,South,172,0.0,-999.0,78,-99.99,,,0.00,weatherlink.com 1.10,2013-01-26 00:25:00,
2013-01-25 19:40:00,19.9,15.0,30.14,South,172,0.0,-999.0,81,-99.99,,,0.00,weatherlink.com 1.10,2013-01-26 00:40:00,
2013-01-25 19:55:00,19.5,15.0,30.14,South,172,0.0,-999.0,83,-99.99,,,0.00,weatherlink.com 1.10,2013-01-26 00:55:00,
2013-01-25 20:11:00,19.3,16.0,30.13,South,172,0.0,-999.0,85,-99.99,,,0.00,weatherlink.com 1.10,2013-01-26 01:11:00,
2013-01-25 20:26:00,19.5,16.0,30.12,South,172,0.0,-999.0,86,-99.99,,,0.00,weatherlink.com 1.10,2013-01-26 01:26:00,
2013-01-25 20:41:00,19.5,16.0,30.12,South,172,0.0,-999.0,87,-99.99,,,0.00,weatherlink.com 1.10,2013-01-26 01:41:00,
2013-01-25 20:56:00,19.4,16.0,30.11,South,172,0.0,-999.0,86,-99.99,,,0.00,weatherlink.com 1.10,2013-01-26 01:56:00,
2013-01-25 21:11:00,19.4,16.0,30.11,South,172,0.0,-999.0,87,-99.99,,,0.00,weatherlink.com 1.10,2013-01-26 02:11:00,
2013-01-25 21:26:00,19.6,17.0,30.11,South,172,0.0,-999.0,88,-99.99,,,0.00,weatherlink.com 1.10,2013-01-26 02:26:00,
2013-01-25 21:41:00,19.6,17.0,30.11,South,172,0.0,-999.0,88,-99.99,,,0.00,weatherlink.com 1.10,2013-01-26 02:41:00,
2013-01-25 21:56:00,19.2,16.0,30.10,South,172,0.0,-999.0,88,-99.99,,,0.00,weatherlink.com 1.10,2013-01-26 02:56:00,